|
WISE Satellite
(
1 2 3 4 5 … 9
)
(Preview)
|
Mission News
|
89
|
25594
|
|
|
WISE is a NASA-funded scientific research project that will provide a vast storehouse of knowledge about the solar system, the Milky Way, and the Universe. Among the objects WISE will study are asteroids, the coolest and dimmest stars, and the most luminous galaxies.
NASA SAYS: 'BUILD I...
|
|
|
|
|
|
W006nnn
(Preview)
|
Solar System
|
3
|
3264
|
|
|
Ephemeris Date UT * R.A. (J2000) Decl. Elong. V Motion h "/min P.A. 2010 01 21 10 00 54 48.3 +46 50 48 91.9 22.3 1.82 034.0 2010 01 21 11 00 54 54.3 +46 52 19 91.8 22.3 1.82 034.1 2010 01 21 12 00 55 00.3 +46 53 49 91.8 22.3 1.82 034.1 2010 01 21 13 00 55 06.2 +46 55 19 91.8 22.3 1.82 034.1 2010 01 21 14 00 55 12.2 +46 5...
|
|
|
|
|
|
Asteroid 2010 CO1
(Preview)
|
Solar System
|
4
|
2505
|
|
|
Orbital elements: 2010 CO1 PHA, Earth MOID = 0.0224 AU Epoch 2010 Jan. 4.0 TT = JDT 2455200.5 MPC M 252.42155 (2000.0) P Q n 0.96835898 Peri. 252.69488 -0.42056777 +0.90536006 a 1.0118399 Node 351.68201 -0.59859227 -0.32552172 e 0.2173975 Incl. 23.93957 -0.68176979 -0.27268805 P 1.02 H 21.5 G 0.1...
|
|
|
|
|
|
Comet P/2010 B2 (WISE)
(Preview)
|
Solar System
|
8
|
3638
|
|
|
Orbital elements: P/2010 B2 (WISE) Epoch 2010 Jan. 4.0 TT = JDT 2455200.5 T 2009 Dec. 20.89103 TT MPC q 1.6069719 (2000.0) P Q n 0.19032027 Peri. 155.40070 -0.91393035 -0.40586714 a 2.9932709 Node 0.66173 +0.34208460 -0.77265656 e 0.4631385 Incl. 8.88973 +0.21842492 -0.48813287 P 5.18 [url=htt...
|
|
|
|
|
|
W008h7c
(Preview)
|
Solar System
|
1
|
2770
|
|
|
Date UT R.A. (J2000) Decl. Elong. V 2010 02 12 22 03 52 44.6 +09 48 00 94.1 21.2 2010 02 12 23 03 52 49.5 +09 49 00 94.1 21.2 2010 02 13 00 03 52 54.5 +09 49 59 94.1 21.2 2010 02 13 01 03 52 59.4 +09 50 59 94.1 21.2 2010 02 13 02 03 53 04.4 +09 51 59 94.1 21.2 2010 02 13 03 03 53 09.4 +09 52 59 94.0 21.2 2010 02 13 04 03 53 14.3 +09 53...
|
|
|
|
|
|
Comet P/2010 D1 (WISE)
(Preview)
|
Solar System
|
1
|
2030
|
|
|
Orbital elements: P/2010 D1 (WISE) Epoch 2009 June 18.0 TT = JDT 2455000.5 T 2009 June 25.58992 TT MPC q 2.6689628 (2000.0) P Q n 0.11667016 Peri. 225.90030 +0.88925439 -0.45411453 a 4.1479118 Node 160.90079 +0.45275306 +0.85678030 e 0.3565527 Incl. 9.64709 +0.06512527 +0.24435119 P 8.45 [url=...
|
|
|
|
|
|
Comet C/2010 D2 (WISE)
(Preview)
|
Solar System
|
5
|
2307
|
|
|
Orbital elements: C/2010 D2 (WISE) T 2010 July 2.834 TT MPC q 3.66164 (2000.0) P Q Peri. 143.791 -0.385210 -0.724843 Node 317.646 +0.511942 +0.347098 e 1.0 Incl. 57.971 +0.767808 -0.595084 From 12 observations 2010 Feb. 25-Mar. 4. [url=http://www.minorplanetcenter.org/mpec/K10/K10E12.ht...
|
|
|
|
|
|
Asteroid 2010 EX11
(Preview)
|
Solar System
|
3
|
1982
|
|
|
Orbital elements: 2010 EX11 Earth MOID = 0.0281 AU Epoch 2010 Jan. 4.0 TT = JDT 2455200.5 MPC M 42.94242 (2000.0) P Q n 1.05518449 Peri. 42.64276 +0.68474853 -0.72867522 a 0.9555435 Node 4.19704 +0.61502513 +0.56871219 e 0.1104102 Incl. 9.69426 +0.39097767 +0.38157421 P 0.93 H 24.0 G 0.15 U 8 [url=...
|
|
|
|
|
|
Comet C/2010 D3 (WISE)
(Preview)
|
Solar System
|
5
|
2064
|
|
|
Orbital elements: C/2010 D3 (WISE) T 2010 Sept. 2.349 TT MPC q 4.23610 (2000.0) P Q Peri. 304.535 -0.332773 -0.081221 Node 255.193 -0.138853 -0.981204 e 1.0 Incl. 76.354 -0.932728 +0.175047 From 17 observations 2010 Feb. 26-Mar. 9. [url=http://www.minorplanetcenter.org/mpec/K10/K10E34.h...
|
|
|
|
|
|
Comet C/2010 DG56 (WISE)
(Preview)
|
Solar System
|
3
|
1994
|
|
|
Orbital elements: C/2010 DG56 (WISE) T 2010 May 13.5729 TT MPC q 1.612228 (2000.0) P Q Peri. 317.0731 +0.6848193 +0.7283234 Node 4.0718 +0.7257552 -0.6846177 e 1.0 Incl. 160.3957 +0.0655889 -0.0290446 From 18 observations 2010 Feb. 18-Mar. 5. [url=http://www.minorplanetcenter.org/mpec/K...
|
|
|
|
|
|
Comet C/2010 D4 (WISE)
(Preview)
|
Solar System
|
3
|
1825
|
|
|
Orbital elements: C/2010 D4 (WISE) T 2009 Mar. 30.939 TT MPC q 7.17413 (2000.0) P Q Peri. 43.916 -0.228922 -0.149435 Node 266.488 -0.915156 +0.369839 e 1.0 Incl. 105.482 +0.331790 +0.917000 From 49 observations 2010 Feb. 28-Mar. 13. [url=http://www.minorplanetcenter.org/mpec/K10/K10E63....
|
|
|
|
|
|
Asteroid 2010 EN44
(Preview)
|
Solar System
|
2
|
1804
|
|
|
Orbital elements: 2010 EN44 Earth MOID = 0.0187 AU Epoch 2010 Mar. 5.0 TT = JDT 2455260.5 MPC M 318.85971 (2000.0) P Q n 0.84605086 Peri. 207.38360 -0.76358048 +0.64497709 a 1.1071464 Node 12.92250 -0.56436191 -0.64343336 e 0.1271922 Incl. 7.91947 -0.31375226 -0.41230821 P 1.16 H 24.7 G 0.15 From...
|
|
|
|
|
|
Comet C/2010 E3 (WISE)
(Preview)
|
Solar System
|
0
|
1678
|
|
|
Orbital elements: C/2010 E3 (WISE) T 2010 Apr. 4.326 TT MPC q 2.27420 (2000.0) P Q Peri. 49.974 -0.218474 +0.416021 Node 117.328 +0.257963 -0.847773 e 1.0 Incl. 96.480 +0.941129 +0.328949 From 26 observations 2010 Mar. 5-15. [url=http://www.minorplanetcenter.org/mpec/K10/K10F01.html]MP...
|
|
|
|
|
|
Asteroid 2010 GW64
(Preview)
|
Solar System
|
0
|
1790
|
|
|
Orbital elements: 2010 GW64 Epoch 2010 Mar. 25.0 TT = JDT 2455280.5 MPC M 359.98005 (2000.0) P Q n 0.00105585 Peri. 151.62582 -0.56744604 -0.04912832 a 95.5139444 Node 301.50828 +0.44547265 +0.82120184 e 0.9610967 Incl. 105.40252 +0.69250206 -0.56851907 P 933 H 14.7 G 0.15 From 30 observations...
|
|
|
|
|
|
Comet C/2010 G3 (WISE)
(
1 2
)
(Preview)
|
Solar System
|
10
|
4628
|
|
|
Orbital elements: C/2010 G3 (WISE) T 2010 Sept. 26.597 TT MPC q 4.66346 (2000.0) P Q Peri. 98.838 -0.333606 -0.681095 Node 316.408 -0.488599 +0.716199 e 1.0 Incl. 109.045 +0.806212 +0.152214 From 23 observations 2010 Apr. 14-16.[url=http://www.minorplanetcenter.org/mpec/K10/K10H04.htm...
|
|
|
|
|
|
Asteroid 2010 GV147
(Preview)
|
Solar System
|
1
|
1923
|
|
|
Orbital elements: 2010 GV147 Earth MOID = 0.3233 AU Epoch 2010 July 23.0 TT = JDT 2455400.5 MPC M 333.56886 (2000.0) P Q n 1.03535435 Peri. 97.20917 +0.58335329 -0.51532077 a 0.9677059 Node 295.97895 +0.11327538 +0.81701884 e 0.6667207 Incl. 44.29684 +0.80428081 +0.25869814 P 0.95 H 18.6 G 0.15 U...
|
|
|
|
|
|
Asteroid 2010 HO20
(Preview)
|
Solar System
|
0
|
1679
|
|
|
Orbital elements: 2010 HO20 Epoch 2010 July 23.0 TT = JDT 2455400.5 MPC M 22.40710 (2000.0) P Q n 0.12138012 Peri. 202.23353 -0.78471387 +0.57782635 a 4.0399037 Node 19.08943 -0.41317709 -0.21777031 e 0.5585831 Incl. 43.31810 -0.46207016 -0.78657028 P 8.12 H 16.5 G 0.15 U 9 [url=http://www.min...
|
|
|
|
|
|
Comet C/2010 J4 (WISE)
(Preview)
|
Solar System
|
3
|
1874
|
|
|
Orbital elements: C/2010 J4 (WISE) T 2010 May 3.289 TT MPC q 1.08599 (2000.0) P Q Peri. 84.477 -0.576192 -0.790454 Node 316.997 -0.816973 +0.549667 e 1.0 Incl. 162.260 -0.023641 +0.270275 From 12 observations 2010 May 12-13. [url=http://www.minorplanetcenter.org/mpec/K10/K10J91.html]MP...
|
|
|
|
|
|
Asteroid 2010 JH124
(Preview)
|
Solar System
|
1
|
1860
|
|
|
Orbital elements: 2010 JH124 Epoch 2010 July 23.0 TT = JDT 2455400.5 MPC M 357.87311 (2000.0) P Q n 0.00810925 Peri. 117.29187 -0.02983623 +0.82972907 a 24.5366687 Node 136.35956 -0.92377552 -0.23586565 e 0.8909392 Incl. 53.86477 +0.38177034 -0.50588247 P 121.54 H 14.7 G 0.15 U 7 [url=http://w...
|
|
|
|
|
|
WISE Sub-brown dwarfs
(Preview)
|
Stars/galaxy News
|
0
|
1896
|
|
|
Edward Wright, a University of California, Los Angeles, astronomer who serves as principal investigator for the Wide-field Infrared Survey Explorer (WISE), said in a talk Monday that the spacecraft has already discovered at least two cool, substellar objects known as brown dwarfs. One of the br...
|
|
|
|
|
|
Asteroid 2010 AR85
(Preview)
|
Solar System
|
3
|
5126
|
|
|
Orbital elements: 2010 AR85 PHA, Earth MOID = 0.0469 AU Epoch 2010 July 23.0 TT = JDT 2455400.5 MPC M 260.71359 (2000.0) P Q n 0.84765539 Peri. 315.61318 +0.20702140 +0.81111472 a 1.1057489 Node 315.66929 -0.52603218 -0.37914998 e 0.7369871 Incl. 51.51821 -0.82488319 +0.44535178 P 1.16 H 17.4 G 0...
|
|
|
|
|
|
Asteroid 2010 AU118
(Preview)
|
Solar System
|
1
|
2034
|
|
|
Orbital elements: 2010 AU118 Earth MOID = 0.1483 AU Epoch 2010 July 23.0 TT = JDT 2455400.5 MPC M 199.48957 (2000.0) P Q n 0.47738336 Peri. 339.61370 +0.91098615 -0.10598106 a 1.6214038 Node 35.21355 +0.40299876 +0.43429736 e 0.3058879 Incl. 43.72850 -0.08772818 +0.89451317 P 2.06 H 17.7 G 0.15 U...
|
|
|
|
|
|
Comet P/2010 K2 (WISE)
(Preview)
|
Solar System
|
6
|
3625
|
|
|
Orbital elements:
P/2010 K2 (WISE)
T 2010 July 7.525 TT MPC
q 1.19949 (2000.0) P Q
n 0.195281 Peri. 328.473 -0.340668 +0.922477
a 2.94236 Node 281.068 -0.819531 -0.386025
e 0.59234 Incl. 10.664 -0.460775 +0.004559
P 5.05
From 42 observations 2010 May 27-June 4.
[...
|
|
|
|
|
|
Asteroid 2010 LH14
(Preview)
|
Solar System
|
0
|
1683
|
|
|
Orbital elements: 2010 LH14 Earth MOID = 0.0552 AU Epoch 2010 July 23.0 TT = JDT 2455400.5 MPC M 5.11514 (2000.0) P Q n 0.29209726 Peri. 80.37982 +0.30493292 +0.95160884 a 2.2496643 Node 207.46814 -0.90302387 +0.27616746 e 0.5848211 Incl. 4.74609 -0.30259512 +0.13480407 P 3.37 H 22.0 G 0.15 U 8 [ur...
|
|
|
|
|
|
Asteroid 2010 LM14
(Preview)
|
Solar System
|
0
|
1575
|
|
|
Orbital elements: 2010 LM14 Earth MOID = 0.3246 AU Epoch 2010 July 23.0 TT = JDT 2455400.5 MPC M 335.93268 (2000.0) P Q n 0.77284050 Peri. 185.27492 +0.99818408 -0.05711421 a 1.1760058 Node 177.71891 +0.05511843 +0.99421276 e 0.4234093 Incl. 28.75025 -0.02430026 -0.09098872 P 1.28 H 21.5 G 0.15 U...
|
|
|
|
|
|
Comet P/2010 L1 (WISE)
(Preview)
|
Solar System
|
3
|
3313
|
|
|
Orbital elements: P/2010 L1 (WISE) T 2010 Feb. 4.039 TT MPC q 2.13749 (2000.0) P Q n 0.124958 Peri. 316.248 +0.113503 +0.964481 a 3.96242 Node 318.501 -0.783455 -0.060752 e 0.46056 Incl. 21.099 -0.610995 +0.257070 P 7.89 From 20 observations 2010 June 2-8. [url=http://www.minorplanetcenter.o...
|
|
|
|
|
|
Asteroid 2010 LE15
(Preview)
|
Solar System
|
2
|
3197
|
|
|
